Home   Weather   Valencia   Past weeks

Flag for Spain Past Weather in Valencia, Spain — Yesterday and Last 2 Weeks

66 °F


Feels Like: 66 °F
Forecast: 63 / 72 °F
Wind: 3 mph from East

Location: Valencia / Aeropuerto

Current Time: Oct 21, 2016 at 8:26:20 PM

Latest Report: Oct 21, 2016 at 8:00 PM

Visibility: N/A

Pressure: 29.95 "Hg

Humidity: 68%

Dew Point: 55 °F

Location of ValenciaLocation

Past Weather in Valencia — Graph


Valencia Temperature Yesterday

Maximum temperature yesterday: 70 °F (at 12:30 PM)
Minimum temperature yesterday: 63 °F (at 3:30 AM)
Average temperature yesterday: 65 °F

High & Low Weather Summary for the Past Weeks

High81 °F (Oct 7, 1:30 PM)100% (Oct 20, 3:30 AM)30.30 "Hg (Oct 20, 3:30 AM)
Low55 °F (Oct 15, 7:30 AM)30% (Oct 11, 2:30 PM)29.53 "Hg (Oct 13, 8:00 AM)
Average69 °F72%29.96 "Hg
* Reported Oct 6 7:00 PM — Oct 21 7:00 PM, Valencia, Weather by CustomWeather, © 2016

Note: Actual official high and low records may vary slightly from our data, if they occured in-between our weather recording intervals... More about our weather records


Valencia Weather History for the Previous 24 Hours

Scroll right to see more
Time TempWeatherWind HumidityBarometerVisibility
7:00 PM
Fri, Oct 21
66 °FPartly sunny.3 mph73%29.92 "HgN/A
6:30 PM66 °FOvercast.3 mph68%29.95 "HgN/A
6:00 PM66 °FOvercast.3 mph68%29.95 "HgN/A
5:30 PM66 °FPartly sunny.3 mph68%29.95 "HgN/A
5:00 PM66 °FPartly sunny.3 mph68%29.95 "HgN/A
4:30 PM66 °FBroken clouds.3 mph68%29.95 "HgN/A
4:00 PM66 °FMostly cloudy.3 mph68%29.95 "HgN/A
3:30 PM66 °FMostly cloudy.3 mph73%29.95 "HgN/A
3:00 PM66 °FBroken clouds.3 mph73%29.95 "HgN/A
2:30 PM64 °FOvercast.2 mph78%29.98 "HgN/A
2:00 PM64 °FPartly sunny.3 mph83%29.98 "HgN/A
1:30 PM63 °FLight rain. Fog.3 mph83%29.98 "Hg3 mi
1:00 PM63 °FDrizzle. Overcast.3 mph83%29.98 "Hg4 mi
12:30 PM64 °FDrizzle. Overcast.3 mph73%29.98 "Hg4 mi
12:00 PM66 °FOvercast.3 mph68%29.98 "HgN/A
11:30 AM66 °FOvercast.2 mph68%29.98 "HgN/A
11:00 AM66 °FOvercast.2 mph68%29.98 "HgN/A
10:30 AM64 °FOvercast.5 mph68%29.98 "HgN/A
10:00 AM64 °FOvercast.2 mph68%29.98 "HgN/A
9:30 AM64 °FPartly sunny.1 mph68%29.95 "HgN/A
9:00 AM64 °FOvercast.1 mph68%29.95 "HgN/A
8:30 AM64 °FPartly sunny.3 mph68%29.95 "HgN/A
8:00 AM64 °FPassing clouds.3 mph73%29.95 "HgN/A
7:30 AM64 °FPassing clouds.2 mph73%29.95 "HgN/A
7:00 AM64 °FPassing clouds.2 mph78%29.95 "HgN/A
6:30 AM64 °FPassing clouds.2 mph83%29.95 "HgN/A
6:00 AM64 °FPassing clouds.No wind88%29.92 "HgN/A
5:30 AM64 °FPassing clouds.No wind83%29.92 "HgN/A
5:00 AM64 °FPassing clouds.No wind83%29.92 "HgN/A
4:30 AM64 °FPassing clouds.2 mph83%29.95 "HgN/A
4:00 AM64 °FPassing clouds.No wind83%29.95 "HgN/A
3:30 AM64 °FPassing clouds.1 mph88%29.95 "HgN/A
2:30 AM64 °FPassing clouds.1 mph83%29.95 "HgN/A
2:00 AM64 °FPassing clouds.1 mph88%29.95 "HgN/A
1:30 AM64 °FPassing clouds.1 mph83%29.95 "HgN/A
1:00 AM64 °FPassing clouds.1 mph83%29.95 "HgN/A
12:30 AM64 °FPassing clouds.2 mph83%29.95 "HgN/A
12:00 AM64 °FPassing clouds.2 mph83%29.95 "HgN/A
11:30 PM
Thu, Oct 20
64 °FPassing clouds.3 mph83%29.95 "HgN/A
11:00 PM64 °FPassing clouds.1 mph83%29.95 "HgN/A
10:30 PM64 °FPassing clouds.6 mph88%29.95 "HgN/A
10:00 PM64 °FPassing clouds.2 mph88%29.95 "HgN/A
9:30 PM64 °FPassing clouds.2 mph88%29.95 "HgN/A
9:00 PM64 °FPassing clouds.5 mph88%29.95 "HgN/A
8:30 PM66 °FPartly cloudy.2 mph83%29.95 "HgN/A
8:00 PM66 °FPartly cloudy.1 mph83%29.95 "HgN/A
Weather by CustomWeather, © 2016

See weather overviewHow to use our weather pages